Weather History for KDDC - November, 2012

Change the Weather History Date:

Saturday, November 24, 2012

  Actual Average Record
Temperature  
Mean Temperature 47 °F -  
Max Temperature 64 °F 51 °F 80 °F (1990)
Min Temperature 30 °F 27 °F 5 °F (1938)
Degree Days  
Heating Degree Days 18    
Moisture  
Dew Point 18 °F    
Average Humidity 34    
Maximum Humidity 61    
Minimum Humidity 13    
Precipitation  
Precipitation 0.00 in - - ()
Sea Level Pressure  
Sea Level Pressure 30.05 in    
Wind  
Wind Speed 14 mph (SSW)    
Max Wind Speed 23 mph    
Max Gust Speed 29 mph    
Visibility 10 miles    
Events      
Averages and records for this station are not official NWS values.
T = Trace of Precipitation, MM = Missing Value Source: NWS Daily Summary

Daily Weather History Graph

Daily Weather History Graph

Search for Another Location

Airport or City:

Trip Planner

Search our weather history database for the weather conditions in past years. The results will help you decide how hot, cold, wet, or windy it might be!

Date:

Astronomy

Nov. 24, 2012 Rise Set
Actual Time 7:30 AM CST 5:23 PM CST
Civil Twilight 7:01 AM CST 5:51 PM CST
Nautical Twilight 6:29 AM CST 6:23 PM CST
Astronomical Twilight 5:57 AM CST 6:55 PM CST
Moon 3:06 PM CST (11/24) 3:51 AM CST (11/24)
Length of Visible Light 10h 50m
Length of Day
9h 53m
Waxing Gibbous, 87% of the Moon is Illuminated
Nov 24
Waxing Gibbous
Nov 28
Full
Dec 6
Last Quarter
Dec 13
New
Dec 19
First Quarter

Hourly Weather History & Observations

Time (CST) Temp. Windchill Dew Point Humidity Pressure Visibility Wind Dir Wind Speed Gust Speed Precip Events Conditions
12:52 AM 28.0 °F 19.3 °F 16.0 °F 61% 30.36 in 10.0 mi South 9.2 mph - N/A   Clear
1:52 AM 30.0 °F 19.5 °F 17.1 °F 59% 30.32 in 10.0 mi South 13.8 mph - N/A   Clear
2:52 AM 30.9 °F 21.2 °F 15.1 °F 52% 30.29 in 10.0 mi South 12.7 mph - N/A   Clear
3:52 AM 30.9 °F 21.2 °F 14.0 °F 50% 30.25 in 10.0 mi South 12.7 mph - N/A   Clear
4:52 AM 30.9 °F 20.7 °F 14.0 °F 50% 30.22 in 10.0 mi South 13.8 mph - N/A   Clear
5:52 AM 32.0 °F 21.2 °F 14.0 °F 48% 30.22 in 10.0 mi SSW 16.1 mph - N/A   Clear
6:52 AM 33.1 °F 22.2 °F 14.0 °F 46% 30.21 in 10.0 mi SSW 17.3 mph - N/A   Clear
7:52 AM 32.0 °F 22.1 °F 15.1 °F 50% 30.20 in 10.0 mi SW 13.8 mph - N/A   Clear
8:52 AM 36.0 °F 26.3 °F 16.0 °F 44% 30.19 in 10.0 mi SSW 16.1 mph - N/A   Clear
9:52 AM 41.0 °F 33.1 °F 16.0 °F 36% 30.16 in 10.0 mi SW 15.0 mph 23.0 mph N/A   Clear
10:52 AM 50.0 °F - 18.0 °F 28% 30.10 in 10.0 mi SW 18.4 mph - N/A   Clear
11:52 AM 55.9 °F - 19.0 °F 24% 30.04 in 10.0 mi SSW 23.0 mph 28.8 mph N/A   Clear
12:52 PM 61.0 °F - 19.0 °F 20% 29.99 in 10.0 mi SW 19.6 mph 26.5 mph N/A   Clear
1:52 PM 64.0 °F - 19.0 °F 18% 29.96 in 10.0 mi SSW 19.6 mph - N/A   Clear
2:52 PM 63.0 °F - 19.9 °F 19% 29.94 in 10.0 mi SSW 15.0 mph - N/A   Clear
3:52 PM 62.1 °F - 19.9 °F 20% 29.91 in 10.0 mi SSW 13.8 mph - N/A   Clear
4:52 PM 60.1 °F - 21.0 °F 22% 29.91 in 10.0 mi SSW 9.2 mph - N/A   Clear
5:52 PM 52.0 °F - 21.0 °F 30% 29.90 in 10.0 mi South 10.4 mph - N/A   Clear
6:52 PM 54.0 °F - 19.9 °F 26% 29.90 in 10.0 mi SW 11.5 mph - N/A   Clear
7:52 PM 52.0 °F - 19.9 °F 28% 29.90 in 10.0 mi SSW 12.7 mph - N/A   Clear
8:52 PM 52.0 °F - 21.0 °F 30% 29.88 in 10.0 mi SSW 11.5 mph - N/A   Clear
9:52 PM 50.0 °F - 19.9 °F 31% 29.88 in 10.0 mi SW 12.7 mph - N/A   Clear
10:52 PM 45.0 °F 39.3 °F 21.0 °F 39% 29.86 in 10.0 mi SSW 11.5 mph - N/A   Clear
11:52 PM 44.1 °F 39.0 °F 19.9 °F 38% 29.86 in 10.0 mi SW 9.2 mph - N/A   Clear